FW3063 Weather Reports


Display with metric or nautical units.
time (UTC)temp
F
wind
direction
speed
MPH
gust
MPH
rain 1hr
in
rain 24hr
in
rain mn
in
humidity
%
barometer
mb
20260504034816 56 0.0 0.0 0.00 0.00 0.00 46 1004.4
20260504033923 56 0.0 0.0 0.00 0.00 0.00 44 1004.6
20260504032831 55 0.0 0.0 0.00 0.00 0.00 45 1004.6
20260504031823 57 0.0 0.0 0.00 0.00 0.00 42 1004.7
20260504030815 57 0.0 0.0 0.00 0.00 0.00 42 1004.7
20260504025823 58 0.0 0.0 0.00 0.00 0.00 42 1004.9
20260504024815 59 0.0 0.0 0.00 0.00 0.00 40 1004.8
20260504023823 59 0.0 0.0 0.00 0.00 0.00 39 1005.0
20260504022831 59 0.0 0.0 0.00 0.00 0.00 38 1005.1
20260504021823 60 0.0 0.0 0.00 0.00 0.00 38 1005.0
20260504020815 60 213 0.0 2.0 0.00 0.00 0.00 38 1005.1
20260504015823 61 0.0 0.0 0.00 0.00 0.00 36 1005.1
20260504014815 61 0.0 0.0 0.00 0.00 0.00 36 1005.1
20260504013823 61 0.0 0.0 0.00 0.00 0.00 36 1005.2
20260504012830 63 0.0 0.0 0.00 0.00 0.00 34 1005.1
20260504011823 64 211 0.0 1.0 0.00 0.00 0.00 33 1005.3
20260504010845 65 224 1.0 2.0 0.00 0.00 0.00 31 1005.3
20260504005823 66 221 1.0 3.0 0.00 0.00 0.00 31 1005.4
20260504004816 66 248 3.0 6.0 0.00 0.00 0.00 30 1005.3
20260504003823 67 227 1.0 2.0 0.00 0.00 0.00 30 1005.4
20260504002815 67 258 2.0 3.0 0.00 0.00 0.00 30 1005.4
20260504001823 67 243 1.0 3.0 0.00 0.00 0.00 30 1005.4
20260504000815 68 217 2.0 3.0 0.00 0.00 0.00 29 1005.5
20260503235853 68 218 2.0 6.0 0.00 0.00 0.00 28 1005.5
20260503234815 70 234 2.0 3.0 0.00 0.00 0.00 27 1005.6
20260503233823 70 230 1.0 2.0 0.00 0.00 0.00 27 1005.4
20260503232859 70 238 2.0 6.0 0.00 0.00 0.00 27 1005.6
20260503231851 70 232 3.0 6.0 0.00 0.00 0.00 26 1005.8
20260503230815 70 244 3.0 4.0 0.00 0.00 0.00 25 1005.8
20260503225922 70 253 3.0 4.0 0.00 0.00 0.00 26 1005.8
20260503224829 71 207 3.0 7.0 0.00 0.00 0.00 26 1005.9
20260503223816 71 203 2.0 8.0 0.00 0.00 0.00 26 1006.0
20260503222816 71 234 2.0 3.0 0.00 0.00 0.00 26 1006.0
20260503221825 71 259 3.0 8.0 0.00 0.00 0.00 26 1006.0
20260503220815 71 237 3.0 6.0 0.00 0.00 0.00 26 1006.0
20260503215824 71 253 2.0 6.0 0.00 0.00 0.00 27 1006.2
20260503214815 72 259 3.0 6.0 0.00 0.00 0.00 27 1006.2
20260503213854 71 278 3.0 7.0 0.00 0.00 0.00 27 1006.1
20260503212815 71 260 2.0 6.0 0.00 0.00 0.00 26 1006.2
20260503211823 71 238 4.0 8.0 0.00 0.00 0.00 27 1006.3
20260503210831 71 240 2.0 4.0 0.00 0.00 0.00 30 1006.3
20260503205851 71 257 3.0 6.0 0.00 0.00 0.00 28 1006.4
20260503204824 71 250 3.0 6.0 0.00 0.00 0.00 28 1006.4
20260503203824 71 241 2.0 3.0 0.00 0.00 0.00 28 1006.4
20260503202815 71 253 3.0 6.0 0.00 0.00 0.00 28 1006.5
20260503201825 71 184 1.0 3.0 0.00 0.00 0.00 29 1006.7
20260503200816 70 229 4.0 9.0 0.00 0.00 0.00 28 1006.8
20260503195824 70 342 4.0 9.0 0.00 0.00 0.00 29 1006.9
20260503194846 70 331 4.0 7.0 0.00 0.00 0.00 27 1007.0
20260503193824 70 230 3.0 7.0 0.00 0.00 0.00 29 1007.1
20260503192816 69 256 4.0 6.0 0.00 0.00 0.00 28 1007.2
20260503191824 69 245 2.0 6.0 0.00 0.00 0.00 28 1007.3
20260503190816 70 228 2.0 4.0 0.00 0.00 0.00 29 1007.2
20260503185855 70 287 3.0 6.0 0.00 0.00 0.00 31 1007.2
20260503184846 69 217 4.0 7.0 0.00 0.00 0.00 32 1007.3
20260503183824 69 257 3.0 10.0 0.00 0.00 0.00 35 1007.4
20260503182815 69 248 4.0 8.0 0.00 0.00 0.00 37 1007.3
20260503181824 69 241 2.0 7.0 0.00 0.00 0.00 37 1007.3
20260503180816 68 238 2.0 7.0 0.00 0.00 0.00 38 1007.5
20260503175852 69 297 3.0 7.0 0.00 0.00 0.00 37 1007.5
20260503174815 68 269 4.0 8.0 0.00 0.00 0.00 40 1007.5
20260503173823 68 263 3.0 6.0 0.00 0.00 0.00 40 1007.6
20260503172830 68 264 3.0 4.0 0.00 0.00 0.00 40 1007.6
20260503171829 68 214 2.0 7.0 0.00 0.00 0.00 41 1007.6
20260503170821 67 213 2.0 7.0 0.00 0.00 0.00 42 1007.9
20260503150822 63 265 2.0 4.0 0.00 0.00 0.00 46 1007.5
20260503130830 55 225 1.0 2.0 0.00 0.00 0.00 54 1006.8
20260503110817 52 174 0.0 2.0 0.00 0.00 0.00 54 1005.4
20260503080818 59 177 3.0 8.0 0.00 0.00 0.00 45 1006.7
20260503072818 59 173 2.0 4.0 0.00 0.00 0.00 49 1006.8
20260503071826 58 181 3.0 7.0 0.00 0.00 0.00 50 1007.1
20260503070818 57 174 3.0 8.0 0.00 0.00 0.00 53 1007.5
20260503054818 57 195 1.0 3.0 0.00 0.00 0.00 49 1008.9
20260503053825 57 179 1.0 2.0 0.00 0.00 0.00 49 1009.1
20260503052818 57 176 1.0 2.0 0.00 0.00 0.00 49 1009.0
20260503051827 58 175 2.0 6.0 0.00 0.00 0.00 47 1008.9
20260503050818 58 151 4.0 8.0 0.00 0.00 0.00 47 1008.9
20260503045826 58 163 4.0 7.0 0.00 0.00 0.00 46 1009.1
20260503044818 58 164 3.0 6.0 0.00 0.00 0.00 47 1009.3
20260503043826 58 165 3.0 6.0 0.00 0.00 0.00 48 1009.4
20260503042818 58 170 2.0 3.0 0.00 0.00 0.00 48 1009.6
20260503041826 59 170 2.0 3.0 0.00 0.00 0.00 47 1009.8
20260503040818 59 171 2.0 6.0 0.00 0.00 0.00 46 1009.9
20260503035856 59 154 2.0 4.0 0.00 0.00 0.00 46 1010.0